AAL450 KPHX-KSAT

Flight info

Callsign AAL450
Flight time 1h 45m
Altitude 37000
Route ECLPS1 PHASE ELP FST MOPPP DNKIN2
Aircraft A320/M-SDE3FGHIRWY/LB1

Departure

Time 2026-05-07 17:13
Airport Phoenix Sky Harbor International Airport (KPHX)

Arrival

Time 2026-05-07 18:59
Airport San Antonio International Airport (KSAT)
Time Latitude Longitude Altitude Speed Heading
2026-05-07 16:41 33.43794 -111.99877 1117 ft 0 kts 269°
2026-05-07 17:00 33.43795 -111.99861 1115 ft 4 kts 255°
2026-05-07 17:00 33.43800 -111.99838 1124 ft 4 kts 279°
2026-05-07 17:00 33.43790 -111.99826 1115 ft 3 kts
2026-05-07 17:01 33.43773 -111.99826 1116 ft 0 kts
2026-05-07 17:04 33.43784 -111.99826 1117 ft 4 kts
2026-05-07 17:05 33.43816 -111.99826 1120 ft 5 kts
2026-05-07 17:05 33.43866 -111.99826 1121 ft 9 kts 356°
2026-05-07 17:05 33.43903 -111.99887 1122 ft 11 kts 269°
2026-05-07 17:05 33.43903 -111.99998 1125 ft 15 kts 270°
2026-05-07 17:06 33.43904 -112.00138 1125 ft 18 kts 270°
2026-05-07 17:06 33.43904 -112.00291 1125 ft 18 kts 269°
2026-05-07 17:06 33.43839 -112.00378 1119 ft 16 kts 181°
2026-05-07 17:06 33.43719 -112.00380 1120 ft 18 kts 181°
2026-05-07 17:07 33.43586 -112.00380 1124 ft 20 kts 179°
2026-05-07 17:07 33.43445 -112.00380 1120 ft 21 kts 180°
2026-05-07 17:07 33.43316 -112.00381 1120 ft 13 kts 180°
2026-05-07 17:07 33.43284 -112.00464 1125 ft 13 kts 274°
2026-05-07 17:08 33.43286 -112.00584 1118 ft 15 kts 269°
2026-05-07 17:08 33.43284 -112.00719 1121 ft 17 kts 267°
2026-05-07 17:08 33.43287 -112.00870 1122 ft 19 kts 271°
2026-05-07 17:08 33.43289 -112.01036 1125 ft 21 kts 269°
2026-05-07 17:09 33.43286 -112.01214 1118 ft 22 kts 268°
2026-05-07 17:09 33.43288 -112.01401 1122 ft 23 kts 269°
2026-05-07 17:09 33.43226 -112.01530 1121 ft 17 kts 231°
2026-05-07 17:09 33.43215 -112.01675 1118 ft 18 kts 270°
2026-05-07 17:10 33.43216 -112.01836 1125 ft 20 kts 270°
2026-05-07 17:10 33.43217 -112.02012 1120 ft 22 kts 270°
2026-05-07 17:10 33.43217 -112.02199 1123 ft 23 kts 270°
2026-05-07 17:10 33.43217 -112.02371 1122 ft 20 kts 270°
2026-05-07 17:11 33.43218 -112.02517 1125 ft 18 kts 270°
2026-05-07 17:11 33.43214 -112.02655 1122 ft 16 kts 257°
2026-05-07 17:11 33.43134 -112.02696 1123 ft 14 kts 164°
2026-05-07 17:11 33.43107 -112.02602 1126 ft 12 kts 89°
2026-05-07 17:12 33.43106 -112.02470 1126 ft 23 kts 90°
2026-05-07 17:12 33.43104 -112.02056 1127 ft 81 kts 90°
2026-05-07 17:12 33.43104 -112.01161 1129 ft 131 kts 90°
2026-05-07 17:12 33.43111 -111.99936 1147 ft 166 kts 90°
2026-05-07 17:13 33.43127 -111.98567 1666 ft 161 kts 90°
2026-05-07 17:13 33.43175 -111.97223 2175 ft 162 kts 87°
2026-05-07 17:13 33.43238 -111.95873 2701 ft 162 kts 86°
2026-05-07 17:13 33.43301 -111.94508 3089 ft 170 kts 86°
2026-05-07 17:14 33.43366 -111.93022 3351 ft 187 kts 85°
2026-05-07 17:14 33.43446 -111.91385 3507 ft 212 kts 85°
2026-05-07 17:14 33.43535 -111.89520 3749 ft 236 kts 86°
2026-05-07 17:14 33.43413 -111.87474 4170 ft 259 kts 109°
2026-05-07 17:15 33.42432 -111.85624 4935 ft 269 kts 129°
2026-05-07 17:15 33.41082 -111.84049 5764 ft 273 kts 136°
2026-05-07 17:15 33.39616 -111.82566 6564 ft 278 kts 138°
2026-05-07 17:15 33.38129 -111.81070 7328 ft 281 kts 137°
2026-05-07 17:16 33.36648 -111.79521 8129 ft 285 kts 136°
2026-05-07 17:16 33.35179 -111.77912 8933 ft 287 kts 135°
2026-05-07 17:16 33.33723 -111.76262 9736 ft 290 kts 135°
2026-05-07 17:16 33.32258 -111.74569 10363 ft 299 kts 134°
2026-05-07 17:17 33.30718 -111.72761 10576 ft 322 kts 134°
2026-05-07 17:17 33.29071 -111.70816 10746 ft 343 kts 134°
2026-05-07 17:17 33.27375 -111.68812 11272 ft 350 kts 134°
2026-05-07 17:17 33.25629 -111.66758 11936 ft 354 kts 134°
2026-05-07 17:18 33.23859 -111.64684 12578 ft 358 kts 134°
2026-05-07 17:18 33.22077 -111.62592 13227 ft 361 kts 134°
2026-05-07 17:18 33.20276 -111.60482 13870 ft 365 kts 134°
2026-05-07 17:18 33.18457 -111.58355 14446 ft 368 kts 134°
2026-05-07 17:19 33.16625 -111.56212 14976 ft 370 kts 134°
2026-05-07 17:19 33.14803 -111.54080 15535 ft 373 kts 133°
2026-05-07 17:19 33.12948 -111.51910 16108 ft 375 kts 133°
2026-05-07 17:19 33.11081 -111.49726 16696 ft 377 kts 133°
2026-05-07 17:20 33.09198 -111.47528 17282 ft 380 kts 133°
2026-05-07 17:20 33.07339 -111.45279 17898 ft 381 kts 128°
2026-05-07 17:20 33.05777 -111.42728 18459 ft 382 kts 120°
2026-05-07 17:20 33.04329 -111.40062 19003 ft 385 kts 120°
2026-05-07 17:21 33.02867 -111.37383 19560 ft 387 kts 120°
2026-05-07 17:21 33.01391 -111.34684 20129 ft 389 kts 120°
2026-05-07 17:21 32.99925 -111.32012 20672 ft 392 kts 120°
2026-05-07 17:21 32.98427 -111.29290 21194 ft 394 kts 120°
2026-05-07 17:22 32.96918 -111.26553 21688 ft 397 kts 120°
2026-05-07 17:22 32.95398 -111.23796 22178 ft 399 kts 120°
2026-05-07 17:22 32.93873 -111.21027 22660 ft 401 kts 119°
2026-05-07 17:22 32.92340 -111.18243 23127 ft 403 kts 119°
2026-05-07 17:23 32.90802 -111.15440 23568 ft 406 kts 119°
2026-05-07 17:23 32.89251 -111.12616 23917 ft 409 kts 120°
2026-05-07 17:23 32.87710 -111.09820 24315 ft 410 kts 121°
2026-05-07 17:23 32.86137 -111.06979 24682 ft 412 kts 121°
2026-05-07 17:24 32.84556 -111.04122 25038 ft 415 kts 121°
2026-05-07 17:24 32.82967 -111.01251 25394 ft 417 kts 121°
2026-05-07 17:24 32.81370 -110.98361 25734 ft 419 kts 120°
2026-05-07 17:24 32.79765 -110.95461 26068 ft 421 kts 120°
2026-05-07 17:25 32.78151 -110.92548 26426 ft 423 kts 121°
2026-05-07 17:25 32.76526 -110.89621 26756 ft 426 kts 121°
2026-05-07 17:25 32.74912 -110.86717 27097 ft 428 kts 121°
2026-05-07 17:25 32.73269 -110.83761 27436 ft 430 kts 120°
2026-05-07 17:26 32.71620 -110.80789 27765 ft 432 kts 120°
2026-05-07 17:26 32.70748 -110.79220 27910 ft 434 kts 121°
2026-05-07 17:26 32.69109 -110.76287 28222 ft 437 kts 122°
2026-05-07 17:26 32.67420 -110.73259 28520 ft 439 kts 122°
2026-05-07 17:27 32.65746 -110.70203 28823 ft 441 kts 119°
2026-05-07 17:27 32.64409 -110.66977 29237 ft 439 kts 110°
2026-05-07 17:27 32.63491 -110.63537 29703 ft 437 kts 104°
2026-05-07 17:27 32.62726 -110.60045 30142 ft 437 kts 104°
2026-05-07 17:28 32.61957 -110.56564 30504 ft 436 kts 104°
2026-05-07 17:28 32.61185 -110.53083 30856 ft 436 kts 104°
2026-05-07 17:28 32.60414 -110.49597 31200 ft 437 kts 104°
2026-05-07 17:28 32.59642 -110.46104 31528 ft 437 kts 105°
2026-05-07 17:29 32.58878 -110.42650 31783 ft 440 kts 105°
2026-05-07 17:29 32.58095 -110.39123 32096 ft 441 kts 106°
2026-05-07 17:29 32.57312 -110.35604 32449 ft 441 kts 106°
2026-05-07 17:29 32.56528 -110.32085 32801 ft 441 kts 106°
2026-05-07 17:30 32.55753 -110.28608 33157 ft 441 kts 106°
2026-05-07 17:30 32.54966 -110.25082 33517 ft 441 kts 107°
2026-05-07 17:30 32.54178 -110.21562 33910 ft 441 kts 107°
2026-05-07 17:30 32.53388 -110.18042 34215 ft 442 kts 108°
2026-05-07 17:31 32.52598 -110.14526 34494 ft 442 kts 108°
2026-05-07 17:31 32.51805 -110.11002 34716 ft 444 kts 108°
2026-05-07 17:31 32.51011 -110.07462 34924 ft 446 kts 108°
2026-05-07 17:31 32.50212 -110.03908 35176 ft 446 kts 109°
2026-05-07 17:32 32.49411 -110.00355 35422 ft 447 kts 109°
2026-05-07 17:32 32.48616 -109.96846 35668 ft 447 kts 109°
2026-05-07 17:32 32.47808 -109.93280 35911 ft 448 kts 109°
2026-05-07 17:32 32.47271 -109.90908 36078 ft 448 kts 109°
2026-05-07 17:33 32.46187 -109.86124 36391 ft 449 kts 109°
2026-05-07 17:33 32.45382 -109.82577 36619 ft 449 kts 109°
2026-05-07 17:33 32.44564 -109.78986 36813 ft 450 kts 109°
2026-05-07 17:33 32.43780 -109.75390 36960 ft 455 kts 105°
2026-05-07 17:34 32.42794 -109.67879 36981 ft 464 kts 103°
2026-05-07 17:34 32.41849 -109.60330 36977 ft 466 kts 103°
2026-05-07 17:35 32.40891 -109.52725 36969 ft 466 kts 103°
2026-05-07 17:35 32.39929 -109.45171 36952 ft 466 kts 104°
2026-05-07 17:36 32.38956 -109.37584 36962 ft 469 kts 104°
2026-05-07 17:36 32.37969 -109.29923 36973 ft 470 kts 104°
2026-05-07 17:37 32.36984 -109.22304 36965 ft 470 kts 104°
2026-05-07 17:37 32.35969 -109.14641 36979 ft 470 kts 105°
2026-05-07 17:38 32.34709 -109.07049 36953 ft 469 kts 109°
2026-05-07 17:38 32.33284 -108.99560 36948 ft 469 kts 109°
2026-05-07 17:39 32.31865 -108.92000 36963 ft 471 kts 108°
2026-05-07 17:39 32.30514 -108.84453 36960 ft 472 kts 108°
2026-05-07 17:40 32.29164 -108.76831 36945 ft 473 kts 109°
2026-05-07 17:40 32.28484 -108.73018 37126 ft 473 kts 109°
2026-05-07 17:40 32.27803 -108.69246 37129 ft 474 kts 109°
2026-05-07 17:41 32.26424 -108.61698 37111 ft 475 kts 109°
2026-05-07 17:41 32.25029 -108.54100 37072 ft 477 kts 109°
2026-05-07 17:42 32.23624 -108.46406 37040 ft 478 kts 109°
2026-05-07 17:42 32.22213 -108.38699 36983 ft 479 kts 110°
2026-05-07 17:43 32.20797 -108.31032 36948 ft 481 kts 110°
2026-05-07 17:43 32.19376 -108.23326 36948 ft 482 kts 110°
2026-05-07 17:44 32.17933 -108.15553 36953 ft 483 kts 110°
2026-05-07 17:44 32.16491 -108.07805 36963 ft 483 kts 110°
2026-05-07 17:45 32.15047 -108.00054 36961 ft 483 kts 110°
2026-05-07 17:45 32.13603 -107.92358 36969 ft 483 kts 110°
2026-05-07 17:46 32.12143 -107.84605 36975 ft 483 kts 110°
2026-05-07 17:46 32.11414 -107.80729 37118 ft 483 kts 110°
2026-05-07 17:46 32.10682 -107.76855 37127 ft 483 kts 110°
2026-05-07 17:47 32.09226 -107.69163 37088 ft 484 kts 110°
2026-05-07 17:47 32.07747 -107.61402 37071 ft 485 kts 110°
2026-05-07 17:48 32.06262 -107.53645 37040 ft 486 kts 110°
2026-05-07 17:48 32.04771 -107.45875 37004 ft 486 kts 110°
2026-05-07 17:49 32.03279 -107.38095 36949 ft 486 kts 111°
2026-05-07 17:49 32.01779 -107.30322 36950 ft 487 kts 111°
2026-05-07 17:50 32.00274 -107.22537 36960 ft 488 kts 111°
2026-05-07 17:50 31.98773 -107.14777 36969 ft 488 kts 111°
2026-05-07 17:51 31.97253 -107.06985 36963 ft 489 kts 111°
2026-05-07 17:51 31.95720 -106.99176 36949 ft 490 kts 112°
2026-05-07 17:52 31.94180 -106.91341 36950 ft 492 kts 112°
2026-05-07 17:52 31.93406 -106.87414 37088 ft 492 kts 112°
2026-05-07 17:52 31.92893 -106.84816 37109 ft 492 kts 112°
2026-05-07 17:53 31.91343 -106.76949 37145 ft 493 kts 112°
2026-05-07 17:53 31.89787 -106.69085 37135 ft 493 kts 112°
2026-05-07 17:54 31.88222 -106.61220 37140 ft 494 kts 112°
2026-05-07 17:54 31.86651 -106.53344 37119 ft 495 kts 112°
2026-05-07 17:55 31.85067 -106.45457 37149 ft 495 kts 112°
2026-05-07 17:55 31.83482 -106.37570 37155 ft 496 kts 112°
2026-05-07 17:56 31.81896 -106.29676 37111 ft 496 kts 113°
2026-05-07 17:56 31.80159 -106.21837 37092 ft 494 kts 116°
2026-05-07 17:57 31.78203 -106.14147 37059 ft 494 kts 117°
2026-05-07 17:57 31.76199 -106.06426 37028 ft 495 kts 116°
2026-05-07 17:58 31.74251 -105.98656 36971 ft 496 kts 116°
2026-05-07 17:58 31.72336 -105.90856 36989 ft 497 kts 116°
2026-05-07 17:59 31.70410 -105.83059 36995 ft 497 kts 116°
2026-05-07 17:59 31.68446 -105.75259 37022 ft 498 kts 116°
2026-05-07 18:00 31.66474 -105.67472 37024 ft 498 kts 116°
2026-05-07 18:00 31.64508 -105.59672 36989 ft 499 kts 116°
2026-05-07 18:01 31.62555 -105.51909 36999 ft 499 kts 116°
2026-05-07 18:01 31.60573 -105.44064 37016 ft 500 kts 117°
2026-05-07 18:02 31.57584 -105.32330 37033 ft 500 kts 117°
2026-05-07 18:03 31.55599 -105.24561 37017 ft 501 kts 117°
2026-05-07 18:03 31.53593 -105.16740 37040 ft 501 kts 117°
2026-05-07 18:04 31.51586 -105.08903 37049 ft 502 kts 117°
2026-05-07 18:04 31.49570 -105.01072 37063 ft 502 kts 117°
2026-05-07 18:05 31.47548 -104.93239 37063 ft 502 kts 117°
2026-05-07 18:05 31.45522 -104.85406 37053 ft 502 kts 117°
2026-05-07 18:06 31.43492 -104.77578 37065 ft 503 kts 117°
2026-05-07 18:06 31.41453 -104.69740 37070 ft 503 kts 117°
2026-05-07 18:07 31.39426 -104.61970 37093 ft 503 kts 117°
2026-05-07 18:07 31.37379 -104.54149 37087 ft 503 kts 117°
2026-05-07 18:08 31.35324 -104.46321 37098 ft 503 kts 117°
2026-05-07 18:08 31.33267 -104.38504 37101 ft 503 kts 117°
2026-05-07 18:09 31.31210 -104.30686 37103 ft 502 kts 117°
2026-05-07 18:09 31.29144 -104.22886 37099 ft 502 kts 117°
2026-05-07 18:10 31.27067 -104.15079 37056 ft 503 kts 117°
2026-05-07 18:10 31.24992 -104.07268 37076 ft 504 kts 117°
2026-05-07 18:11 31.22911 -103.99446 37095 ft 504 kts 117°
2026-05-07 18:11 31.20817 -103.91630 37099 ft 504 kts 117°
2026-05-07 18:12 31.18718 -103.83818 37107 ft 504 kts 117°
2026-05-07 18:12 31.16614 -103.76014 37117 ft 503 kts 117°
2026-05-07 18:13 31.14512 -103.68223 37128 ft 503 kts 117°
2026-05-07 18:13 31.12408 -103.60427 37127 ft 503 kts 117°
2026-05-07 18:14 31.10298 -103.52640 37124 ft 504 kts 117°
2026-05-07 18:14 31.08195 -103.44898 37056 ft 504 kts 117°
2026-05-07 18:15 31.06075 -103.37108 37069 ft 504 kts 117°
2026-05-07 18:15 31.03948 -103.29313 37070 ft 504 kts 117°
2026-05-07 18:16 31.01820 -103.21534 37078 ft 504 kts 117°
2026-05-07 18:16 30.99676 -103.13755 37077 ft 504 kts 117°
2026-05-07 18:17 30.97523 -103.05975 37067 ft 505 kts 117°
2026-05-07 18:17 30.95375 -102.98189 37073 ft 505 kts 117°
2026-05-07 18:18 30.93311 -102.90339 37183 ft 508 kts 115°
2026-05-07 18:18 30.91404 -102.82449 37182 ft 509 kts 115°
2026-05-07 18:19 30.89488 -102.74510 37159 ft 509 kts 115°
2026-05-07 18:19 30.87511 -102.66602 37111 ft 508 kts 115°
2026-05-07 18:20 30.85509 -102.58701 37111 ft 509 kts 115°
2026-05-07 18:20 30.83512 -102.50799 37088 ft 509 kts 115°
2026-05-07 18:21 30.81517 -102.42902 37096 ft 509 kts 115°
2026-05-07 18:21 30.79520 -102.34994 37088 ft 509 kts 115°
2026-05-07 18:22 30.77528 -102.27147 37099 ft 510 kts 115°
2026-05-07 18:22 30.75509 -102.19237 37106 ft 510 kts 115°
2026-05-07 18:23 30.73489 -102.11341 37111 ft 510 kts 115°
2026-05-07 18:23 30.71467 -102.03441 37102 ft 510 kts 116°
2026-05-07 18:24 30.69435 -101.95545 37106 ft 510 kts 116°
2026-05-07 18:24 30.67399 -101.87648 37087 ft 510 kts 115°
2026-05-07 18:25 30.65369 -101.79752 37099 ft 510 kts 115°
2026-05-07 18:25 30.63325 -101.71846 37106 ft 511 kts 115°
2026-05-07 18:26 30.61273 -101.63956 37109 ft 511 kts 115°
2026-05-07 18:26 30.59218 -101.56068 37108 ft 511 kts 115°
2026-05-07 18:27 30.57158 -101.48173 37119 ft 511 kts 115°
2026-05-07 18:27 30.55101 -101.40314 37111 ft 511 kts 115°
2026-05-07 18:28 30.53034 -101.32455 37111 ft 511 kts 115°
2026-05-07 18:28 30.50953 -101.24546 37150 ft 511 kts 115°
2026-05-07 18:29 30.48884 -101.16689 37146 ft 512 kts 115°
2026-05-07 18:29 30.46794 -101.08808 37107 ft 512 kts 115°
2026-05-07 18:30 30.44699 -101.00932 37109 ft 512 kts 115°
2026-05-07 18:30 30.42591 -100.93022 37131 ft 513 kts 115°
2026-05-07 18:31 30.40484 -100.85111 37150 ft 513 kts 115°
2026-05-07 18:31 30.38382 -100.77224 37159 ft 513 kts 115°
2026-05-07 18:32 30.36271 -100.69350 37160 ft 513 kts 115°
2026-05-07 18:32 30.34139 -100.61448 37155 ft 514 kts 115°
2026-05-07 18:33 30.31998 -100.53559 37131 ft 514 kts 115°
2026-05-07 18:33 30.29863 -100.45672 37117 ft 514 kts 115°
2026-05-07 18:34 30.27730 -100.37772 37105 ft 514 kts 115°
2026-05-07 18:34 30.25589 -100.29882 36573 ft 516 kts 115°
2026-05-07 18:34 30.24498 -100.25897 35588 ft 523 kts 114°
2026-05-07 18:35 30.23400 -100.21889 34785 ft 523 kts 114°
2026-05-07 18:35 30.22306 -100.17881 33964 ft 524 kts 114°
2026-05-07 18:35 30.21203 -100.13842 32916 ft 528 kts 113°
2026-05-07 18:35 30.20096 -100.09791 31923 ft 529 kts 113°
2026-05-07 18:36 30.18985 -100.05736 30954 ft 530 kts 113°
2026-05-07 18:36 30.17870 -100.01674 30009 ft 529 kts 113°
2026-05-07 18:36 30.16732 -99.97663 29094 ft 523 kts 115°
2026-05-07 18:36 30.15545 -99.93771 28261 ft 518 kts 116°
2026-05-07 18:37 30.14297 -99.89890 27522 ft 512 kts 116°
2026-05-07 18:37 30.13031 -99.86053 26809 ft 506 kts 117°
2026-05-07 18:37 30.11780 -99.82272 26137 ft 501 kts 116°
2026-05-07 18:37 30.10549 -99.78513 25335 ft 499 kts 116°
2026-05-07 18:38 30.09344 -99.74779 24776 ft 493 kts 116°
2026-05-07 18:38 30.08160 -99.71066 24173 ft 488 kts 116°
2026-05-07 18:38 30.07012 -99.67446 23504 ft 485 kts 115°
2026-05-07 18:38 30.05862 -99.63812 22865 ft 478 kts 115°
2026-05-07 18:39 30.04725 -99.60221 22283 ft 470 kts 115°
2026-05-07 18:39 30.03607 -99.56705 21753 ft 462 kts 115°
2026-05-07 18:39 30.02515 -99.53292 21236 ft 455 kts 115°
2026-05-07 18:39 30.01421 -99.49887 20721 ft 450 kts 115°
2026-05-07 18:40 30.00328 -99.46496 20205 ft 446 kts 114°
2026-05-07 18:40 29.99247 -99.43150 19690 ft 443 kts 115°
2026-05-07 18:40 29.98173 -99.39827 19174 ft 441 kts 114°
2026-05-07 18:40 29.97102 -99.36507 18670 ft 440 kts 114°
2026-05-07 18:41 29.96051 -99.33245 18096 ft 439 kts 114°
2026-05-07 18:41 29.94984 -99.29931 17422 ft 439 kts 114°
2026-05-07 18:41 29.93921 -99.26643 16877 ft 434 kts 114°
2026-05-07 18:41 29.92878 -99.23430 16391 ft 429 kts 114°
2026-05-07 18:42 29.91820 -99.20202 15878 ft 424 kts 115°
2026-05-07 18:42 29.90734 -99.17083 15251 ft 422 kts 116°
2026-05-07 18:42 29.89970 -99.14994 15007 ft 416 kts 117°
2026-05-07 18:42 29.88832 -99.11951 14453 ft 412 kts 117°
2026-05-07 18:43 29.87686 -99.08927 13886 ft 408 kts 117°
2026-05-07 18:43 29.86585 -99.06008 13167 ft 395 kts 117°
2026-05-07 18:43 29.85511 -99.03129 12430 ft 387 kts 117°
2026-05-07 18:43 29.84458 -99.00282 11850 ft 385 kts 116°
2026-05-07 18:44 29.83302 -98.97522 11264 ft 379 kts 124°
2026-05-07 18:44 29.81748 -98.95110 10699 ft 372 kts 135°
2026-05-07 18:44 29.80077 -98.92949 10500 ft 358 kts 134°
2026-05-07 18:44 29.78453 -98.90847 10370 ft 343 kts 134°
2026-05-07 18:45 29.76895 -98.88828 10257 ft 330 kts 134°
2026-05-07 18:45 29.75394 -98.86884 10117 ft 318 kts 134°
2026-05-07 18:45 29.73950 -98.85012 9990 ft 308 kts 134°
2026-05-07 18:45 29.72546 -98.83195 9803 ft 300 kts 134°
2026-05-07 18:46 29.71181 -98.81435 9439 ft 299 kts 134°
2026-05-07 18:46 29.69803 -98.79665 9137 ft 296 kts 134°
2026-05-07 18:46 29.68426 -98.77914 8733 ft 296 kts 135°
2026-05-07 18:46 29.67009 -98.76197 8421 ft 291 kts 136°
2026-05-07 18:47 29.65646 -98.74576 8241 ft 273 kts 136°
2026-05-07 18:47 29.64297 -98.73090 7841 ft 264 kts 147°
2026-05-07 18:47 29.62701 -98.72094 7457 ft 264 kts 162°
2026-05-07 18:47 29.60969 -98.71444 7257 ft 261 kts 163°
2026-05-07 18:48 29.59242 -98.70777 6949 ft 262 kts 162°
2026-05-07 18:48 29.57515 -98.70101 6596 ft 263 kts 161°
2026-05-07 18:48 29.55746 -98.69409 6147 ft 269 kts 161°
2026-05-07 18:48 29.54016 -98.68726 5986 ft 262 kts 161°
2026-05-07 18:49 29.52332 -98.68063 5962 ft 249 kts 161°
2026-05-07 18:49 29.50732 -98.67437 5966 ft 235 kts 161°
2026-05-07 18:49 29.49218 -98.66846 5970 ft 227 kts 161°
2026-05-07 18:49 29.47726 -98.66278 5969 ft 225 kts 165°
2026-05-07 18:50 29.46170 -98.66154 5971 ft 226 kts 188°
2026-05-07 18:50 29.44699 -98.66720 5971 ft 227 kts 210°
2026-05-07 18:50 29.43456 -98.67838 5974 ft 228 kts 219°
2026-05-07 18:50 29.42256 -98.69023 5973 ft 228 kts 219°
2026-05-07 18:51 29.41047 -98.70207 5970 ft 228 kts 220°
2026-05-07 18:51 29.39839 -98.71388 5970 ft 228 kts 220°
2026-05-07 18:51 29.38596 -98.72510 5859 ft 228 kts 206°
2026-05-07 18:51 29.37083 -98.72918 5492 ft 224 kts 172°
2026-05-07 18:52 29.35674 -98.72313 5138 ft 219 kts 140°
2026-05-07 18:52 29.34580 -98.71126 4970 ft 215 kts 134°
2026-05-07 18:52 29.33734 -98.69710 4971 ft 217 kts 109°
2026-05-07 18:52 29.33583 -98.67998 4969 ft 218 kts 79°
2026-05-07 18:53 29.34165 -98.66394 4974 ft 220 kts 62°
2026-05-07 18:53 29.34916 -98.64856 4972 ft 221 kts 62°
2026-05-07 18:53 29.35752 -98.63355 4825 ft 224 kts 50°
2026-05-07 18:53 29.36909 -98.62150 4557 ft 224 kts 43°
2026-05-07 18:54 29.38046 -98.61043 4375 ft 211 kts 44°
2026-05-07 18:54 29.39135 -98.59975 4131 ft 200 kts 44°
2026-05-07 18:54 29.40160 -98.58968 3921 ft 188 kts 43°
2026-05-07 18:54 29.41144 -98.58000 3656 ft 184 kts 42°
2026-05-07 18:55 29.42106 -98.57054 3415 ft 180 kts 44°
2026-05-07 18:55 29.43044 -98.56131 3182 ft 175 kts 43°
2026-05-07 18:55 29.43960 -98.55231 2957 ft 171 kts 43°
2026-05-07 18:55 29.44854 -98.54350 2731 ft 167 kts 41°
2026-05-07 18:56 29.45705 -98.53513 2515 ft 154 kts 43°
2026-05-07 18:56 29.46479 -98.52751 2344 ft 142 kts 42°
2026-05-07 18:56 29.47214 -98.52028 2147 ft 137 kts 43°
2026-05-07 18:56 29.47924 -98.51327 1969 ft 135 kts 41°
2026-05-07 18:57 29.48641 -98.50621 1785 ft 134 kts 40°
2026-05-07 18:57 29.49351 -98.49921 1601 ft 135 kts 40°
2026-05-07 18:57 29.50063 -98.49220 1429 ft 134 kts 37°
2026-05-07 18:57 29.50780 -98.48514 1249 ft 139 kts 39°
2026-05-07 18:58 29.51504 -98.47796 1063 ft 135 kts 40°
2026-05-07 18:58 29.52224 -98.47094 884 ft 135 kts 39°
2026-05-07 18:58 29.52908 -98.46425 800 ft 114 kts 39°
2026-05-07 18:58 29.53368 -98.45958 798 ft 63 kts 41°
2026-05-07 18:59 29.53590 -98.45740 798 ft 30 kts 40°
2026-05-07 18:59 29.53702 -98.45691 798 ft 16 kts 326°
2026-05-07 18:59 29.53743 -98.45745 798 ft 7 kts 303°
2026-05-07 18:59 29.53727 -98.45795 798 ft 8 kts 232°
2026-05-07 19:00 29.53676 -98.45850 798 ft 13 kts 219°
2026-05-07 19:00 29.53600 -98.45923 798 ft 15 kts 220°
2026-05-07 19:00 29.53514 -98.46007 798 ft 17 kts 220°
2026-05-07 19:00 29.53418 -98.46101 798 ft 19 kts 220°
2026-05-07 19:01 29.53311 -98.46205 798 ft 21 kts 221°
2026-05-07 19:01 29.53198 -98.46319 798 ft 23 kts 221°
2026-05-07 19:01 29.53074 -98.46441 800 ft 24 kts 220°
2026-05-07 19:01 29.52943 -98.46570 792 ft 25 kts 221°
2026-05-07 19:02 29.52839 -98.46676 792 ft 20 kts 222°
2026-05-07 19:02 29.52753 -98.46760 792 ft 12 kts 219°
2026-05-07 19:02 29.52738 -98.46779 792 ft 2 kts 245°
2026-05-07 19:02 29.52742 -98.46802 792 ft 5 kts 296°
2026-05-07 19:03 29.52785 -98.46836 792 ft 9 kts 327°
2026-05-07 19:03 29.52836 -98.46892 792 ft 12 kts 312°
2026-05-07 19:03 29.52897 -98.46971 792 ft 14 kts 312°
2026-05-07 19:03 29.52911 -98.47056 792 ft 10 kts 253°
2026-05-07 19:04 29.52906 -98.47064 793 ft 1 kts 219°
2026-05-07 19:04 29.52880 -98.47071 793 ft 6 kts 202°
2026-05-07 19:04 29.52867 -98.47099 793 ft 3 kts 262°
2026-05-07 19:04 29.52877 -98.47126 793 ft 4 kts 298°
2026-05-07 19:05 29.52881 -98.47141 793 ft 0 kts 287°